DW7098 Weather Reports


Display with metric or nautical units.
time (UTC)temp
F
wind
direction
speed
MPH
gust
MPH
rain 1hr
in
rain 24hr
in
rain mn
in
humidity
%
barometer
mb
20260904190121 63 130 4.0 7.0 0.00 0.00 0.00
20260904183042 62 56 4.0 7.0 0.00 0.00 0.00
20260904170120 57 83 1.0 4.0 0.00 0.00 0.00
20260904160120 54 102 1.0 3.0 0.00 0.00 0.00
20260904143049 51 82 0.0 1.0 0.00 0.00 0.00
20260904140119 50 80 0.0 1.0 0.00 0.00 0.00
20260904133038 50 109 0.0 1.0 0.00 0.00 0.00
20260904130117 49 77 0.0 1.0 0.00 0.00 0.00
20260904123102 49 68 0.0 0.0 0.00 0.00 0.00
20260904120109 50 69 0.0 1.0 0.00 0.00 0.00
20260904110108 50 68 0.0 1.0 0.00 0.00 0.00
20260904103105 51 68 0.0 1.0 0.00 0.00 0.00
20260904100118 51 68 0.0 1.0 0.00 0.00 0.00
20260904090110 52 68 0.0 1.0 0.00 0.00 0.00
20260904080113 53 67 0.0 2.0 0.00 0.00 0.00
20260904073036 53 57 0.0 1.0 0.00 0.00 0.00
20260904070109 53 127 0.0 0.0 0.00 0.00 0.00
20260904063104 53 66 0.0 1.0 0.00 0.00 0.00
20260904053036 55 66 0.0 1.0 0.00 0.00 0.00
20260904050108 56 66 0.0 2.0 0.00 0.00 0.00
20260904043051 57 65 0.0 1.0 0.00 0.00 0.00
20260904040104 57 65 0.0 2.0 0.00 0.00 0.00
20260904033054 57 65 0.0 2.0 0.00 0.00 0.00
20260904030110 58 0 0.0 2.0 0.00 0.00 0.00
20260904023048 59 66 0.0 2.0 0.00 0.00 0.00
20260904020059 60 73 1.0 4.0 0.00 0.00 0.00
20260904013048 62 61 3.0 5.0 0.00 0.00 0.00
20260904010122 62 73 4.0 6.0 0.00 0.00 0.00
20260904003044 63 62 4.0 6.0 0.00 0.00 0.00
20260904000116 63 58 1.0 3.0 0.00 0.00 0.00
20260903233101 63 53 2.0 7.0 0.00 0.00 0.00
20260903223059 63 83 1.0 6.0 0.00 0.00 0.00
20260903213033 62 63 1.0 6.0 0.00 0.00 0.00
20260903210107 63 98 2.0 9.0 0.00 0.00 0.00
20260903203046 63 30 3.0 7.0 0.00 0.00 0.00
20260903200114 62 54 3.0 8.0 0.00 0.00 0.00
20260903193036 61 264 1.0 8.0 0.00 0.00 0.00